Weather reports worldwide

Advertisment
Westdorpe aws, Netherlands (6319): temperature & dewpoint: 10.12.2019 13:00:00 - 16.12.2019 13:00:00 (CET)Westdorpe aws, Netherlands (6319): temperature 5cm: 10.12.2019 13:00:00 - 16.12.2019 13:00:00 (CET)Westdorpe aws, Netherlands (6319): wind speed & gusts: 10.12.2019 13:00:00 - 16.12.2019 13:00:00 (CET)Westdorpe aws, Netherlands (6319): wind direction: 10.12.2019 13:00:00 - 16.12.2019 13:00:00 (CET)Westdorpe aws, Netherlands (6319): reduced air pressure: 10.12.2019 13:00:00 - 16.12.2019 13:00:00 (CET)Westdorpe aws, Netherlands (6319): visibility: 10.12.2019 13:00:00 - 16.12.2019 13:00:00 (CET)Westdorpe aws, Netherlands (6319): precipitation: 10.12.2019 13:00:00 - 16.12.2019 13:00:00 (CET)
Date & Time tt [°C] td [°C] tt 5cm [°C] ff [km/h] ff [kn] fx [km/h] fx [kn] dd ppp [hPa] vv [km] rr [mm]
16.12.2019 13:00:00 9,0 7,0 8,7 14 8 25 14 S 1004,1 47 0,0
16.12.2019 12:00:00 8,9 6,9 8,5 18 10 25 14 S 1004,5 41 0,0
16.12.2019 11:00:00 8,6 6,7 8,2 18 10 25 14 S 1004,7 44 0,0
16.12.2019 10:00:00 8,3 6,5 7,8 18 10 29 16 S 1004,5 35 0,0
16.12.2019 09:00:00 8,1 6,4 7,5 22 12 32 18 S 1004,4 32 0,0
16.12.2019 08:00:00 7,8 6,3 7,2 18 10 29 16 S 1003,5 30 0,0
16.12.2019 07:00:00 7,9 6,2 7,1 22 12 36 19 S 1003,4 21 0,0
16.12.2019 06:00:00 7,3 5,8 6,6 18 10 29 16 S 1003,7 17 0,0
16.12.2019 05:00:00 6,5 5,1 5,8 14 8 22 12 S 1004,2 21 0,0
16.12.2019 04:00:00 6,2 4,6 5,4 14 8 22 12 S 1004,3 21 0,0
16.12.2019 03:00:00 6,3 4,2 5,5 14 8 25 14 S 1004,4 25 0,0
16.12.2019 02:00:00 6,1 3,9 5,3 14 8 22 12 S 1004,2 20 0,0
16.12.2019 01:00:00 6,0 3,5 4,9 14 8 22 12 S 1004,2 18 0,0
16.12.2019 00:00:00 5,9 2,8 4,6 14 8 22 12 S 1004,5 18 0,0
15.12.2019 23:00:00 6,0 2,8 5,1 14 8 25 14 S 1004,7 18 0,0
15.12.2019 22:00:00 6,8 2,7 5,6 18 10 32 18 S 1004,9 19 0,0
15.12.2019 21:00:00 7,0 2,7 5,9 22 12 32 18 S 1004,7 19 0,0
15.12.2019 20:00:00 7,0 2,6 6,0 22 12 40 21 S 1004,4 21 0,0
15.12.2019 19:00:00 7,4 2,5 6,3 25 14 36 19 S 1003,9 22 0,0
15.12.2019 18:00:00 7,7 3,0 6,6 22 12 40 21 SSW 1003,4 16 0,0
15.12.2019 17:00:00 7,7 4,0 6,3 11 6 25 14 S 1002,8 26 0,0
15.12.2019 16:00:00 7,1 4,7 6,9 14 8 50 27 W 1002,7 20 0,0
15.12.2019 15:00:00 9,3 3,8 9,0 32 18 47 25 SW 1001,2 24 0,0
15.12.2019 14:00:00 8,6 4,1 8,3 32 18 58 31 SW 1000,8 22 0,0
15.12.2019 13:00:00 8,9 4,4 8,7 36 19 61 33 SW 999,7 18 0,0
15.12.2019 12:00:00 8,8 4,7 8,7 40 21 58 31 SW 999,4 23 0,0
15.12.2019 11:00:00 8,0 4,3 7,6 36 19 54 29 SW 998,8 20 0,0
15.12.2019 10:00:00 7,0 2,5 5,9 25 14 36 19 SW 998,2 25 0,0
15.12.2019 09:00:00 6,5 0,8 5,3 25 14 50 27 WSW 997,3 36 0,0
15.12.2019 08:00:00 7,1 2,5 6,2 32 18 54 29 WSW 995,8 37 0,0
15.12.2019 07:00:00 7,6 3,5 6,8 36 19 54 29 WSW 993,9 50 0,0
15.12.2019 06:00:00 8,6 5,3 7,7 32 18 54 29 WSW 992,3 44 0,0
15.12.2019 05:00:00 8,9 6,4 8,1 32 18 61 33 WSW 991,0 50 1,3
15.12.2019 04:00:00 9,4 7,6 8,7 32 18 54 29 SSW 990,4 8 0,7
15.12.2019 03:00:00 8,5 6,2 7,8 29 16 47 25 S 990,9 26 0,0
15.12.2019 02:00:00 7,6 4,3 6,8 22 12 36 19 S 991,6 18 0,0
15.12.2019 01:00:00 7,2 3,4 6,3 22 12 40 21 S 993,3 32 0,0
15.12.2019 00:00:00 6,6 3,1 5,4 14 8 29 16 S 994,7 21 0,0
14.12.2019 23:00:00 6,6 3,0 5,6 18 10 36 19 S 996,1 16 0,0
14.12.2019 22:00:00 6,2 2,2 5,2 18 10 29 16 S 997,1 14 0,0
14.12.2019 21:00:00 6,2 1,6 4,0 14 8 29 16 S 997,8 13 0,0
14.12.2019 20:00:00 6,2 1,0 4,8 22 12 29 16 SW 998,0 16 0,0
14.12.2019 19:00:00 5,7 1,3 4,7 18 10 29 16 WSW 997,7 18 0,0
14.12.2019 18:00:00 6,3 1,4 5,2 18 10 40 21 WSW 996,9 23 0,0
14.12.2019 17:00:00 7,0 0,1 5,9 32 18 65 35 W 995,8 27 0,0
14.12.2019 16:00:00 7,5 1,1 6,7 50 27 86 47 W 994,0 26 0,1
14.12.2019 15:00:00 8,1 3,9 7,6 40 21 61 33 SW 991,7 40 0,1
14.12.2019 14:00:00 6,8 4,7 6,5 32 18 58 31 SW 991,7 9 0,8
14.12.2019 13:00:00 7,2 3,5 6,5 36 19 50 27 SW 992,3 6 0,5
14.12.2019 12:00:00 7,2 2,9 6,9 25 14 40 21 WSW 992,2 21 0,0
14.12.2019 11:00:00 7,1 1,7 6,6 29 16 47 25 WSW 992,0 27 0,0
14.12.2019 10:00:00 6,7 2,1 6,0 40 21 61 33 W 991,1 34 0,0
14.12.2019 09:00:00 6,5 3,9 5,8 36 19 50 27 WSW 989,3 28 0,3
14.12.2019 08:00:00 5,9 4,3 5,4 32 18 43 23 WSW 987,9 11 0,4
14.12.2019 07:00:00 5,6 3,8 4,8 29 16 43 23 WSW 986,5 30 0,0
14.12.2019 06:00:00 5,3 3,5 4,7 22 12 32 18 W 985,2 48 0,0
14.12.2019 05:00:00 5,6 4,2 5,2 25 14 32 18 WNW 983,1 16 0,6
14.12.2019 04:00:00 5,2 4,7 5,2 11 6 18 10 N 980,9 4,0 1,9
14.12.2019 03:00:00 5,4 4,7 5,2 7 4 29 16 SE 980,6 9 1,7
14.12.2019 02:00:00 5,8 4,2 5,5 18 10 36 19 S 981,8 10 0,4
14.12.2019 01:00:00 6,3 3,7 5,7 25 14 36 19 SSW 982,9 9 0,0
14.12.2019 00:00:00 6,0 2,7 5,5 22 12 32 18 S 983,8 17 0,0
13.12.2019 23:00:00 6,4 2,4 5,6 22 12 43 23 SSW 984,2 15 0,0
13.12.2019 22:00:00 6,6 2,3 5,5 25 14 36 19 SW 984,6 19 0,0
13.12.2019 21:00:00 7,1 2,5 6,2 25 14 36 19 SW 985,6 23 0,0
13.12.2019 20:00:00 7,3 2,7 6,6 25 14 40 21 WSW 985,4 25 0,0
13.12.2019 19:00:00 7,2 3,7 6,5 25 14 36 19 SW 985,5 23 0,0
13.12.2019 18:00:00 6,9 4,6 6,5 22 12 47 25 W 985,0 10 0,3
13.12.2019 17:00:00 7,4 4,4 6,9 25 14 43 23 W 984,1 11 0,1
13.12.2019 16:00:00 7,8 4,5 7,3 29 16 50 27 W 983,0 28 0,0
13.12.2019 15:00:00 7,8 5,1 7,4 32 18 47 25 WNW 981,2 18 0,0
13.12.2019 14:00:00 7,8 5,3 7,4 32 18 47 25 WNW 979,8 31 0,1
13.12.2019 13:00:00 6,4 5,7 6,3 22 12 32 18 WNW 978,1 6 2,4
13.12.2019 12:00:00 5,9 5,1 5,9 22 12 40 21 WNW 976,3 7 1,4
13.12.2019 11:00:00 6,3 5,3 6,3 25 14 36 19 NW 974,4 12 0,1
13.12.2019 10:00:00 6,4 5,6 6,2 22 12 36 19 W 972,1 7 0,1
13.12.2019 09:00:00 6,0 4,8 5,6 18 10 29 16 SW 971,0 25 0,0
13.12.2019 08:00:00 6,4 5,0 6,0 18 10 29 16 SW 970,4 45 0,0
13.12.2019 07:00:00 6,0 5,3 5,6 7 4 25 14 S 970,0 12 1,1
13.12.2019 06:00:00 5,5 5,0 5,4 11 6 22 12 SE 970,2 10 2,9
13.12.2019 05:00:00 5,5 4,8 5,3 14 8 22 12 SE 971,4 9 1,2
13.12.2019 04:00:00 5,1 4,3 4,9 14 8 32 18 SSE 973,2 13 1,0
13.12.2019 03:00:00 5,0 3,6 4,8 18 10 40 21 S 974,5 43 0,0
13.12.2019 02:00:00 4,7 3,0 4,3 22 12 43 23 S 975,9 49 0,0
13.12.2019 01:00:00 4,7 2,8 4,4 25 14 47 25 S 977,4 50 0,0
13.12.2019 00:00:00 4,7 2,8 4,4 25 14 50 27 S 979,2 12 0,1
12.12.2019 23:00:00 4,7 2,7 4,5 25 14 54 29 S 980,6 27 0,7
12.12.2019 22:00:00 5,3 3,2 5,0 29 16 47 25 S 982,0 12 0,9
12.12.2019 21:00:00 5,6 3,4 5,2 25 14 47 25 S 983,7 18 0,3
12.12.2019 20:00:00 5,3 3,0 5,0 25 14 47 25 S 985,7 23 0,1
12.12.2019 19:00:00 4,9 2,8 4,6 25 14 47 25 SSE 987,5 36 0,0
12.12.2019 18:00:00 5,2 2,2 4,9 22 12 43 23 SSE 989,1 26 0,0
12.12.2019 17:00:00 5,1 1,9 4,7 22 12 47 25 SSE 990,5 34 0,0
12.12.2019 16:00:00 5,2 1,8 4,9 22 12 40 21 S 992,2 33 0,0
12.12.2019 15:00:00 5,2 1,9 5,1 25 14 43 23 S 994,2 33 0,0
12.12.2019 14:00:00 5,5 2,2 5,5 22 12 40 21 S 995,7 41 0,0
12.12.2019 13:00:00 5,4 2,3 5,4 18 10 32 18 S 997,4 35 0,0
12.12.2019 12:00:00 4,8 2,1 5,4 18 10 32 18 S 999,0 37 0,0
12.12.2019 11:00:00 3,8 1,7 3,8 18 10 29 16 S 1000,4 33 0,0
12.12.2019 10:00:00 2,5 1,3 2,2 14 8 25 14 S 1001,3 14 0,0
12.12.2019 09:00:00 2,2 1,1 1,4 14 8 22 12 S 1001,9 17 0,0
12.12.2019 08:00:00 2,3 1,3 1,5 14 8 22 12 S 1002,2 17 0,0
12.12.2019 07:00:00 3,3 1,8 2,4 18 10 25 14 SW 1002,3 26 0,0
12.12.2019 06:00:00 3,4 2,1 2,6 18 10 25 14 SW 1002,5 26 0,0
12.12.2019 05:00:00 3,8 2,5 3,2 18 10 25 14 SW 1002,6 38 0,0
12.12.2019 04:00:00 4,4 3,0 3,9 18 10 25 14 SW 1002,5 38 0,0
12.12.2019 03:00:00 4,3 2,8 3,4 14 8 29 16 SW 1002,5 50 0,0
12.12.2019 02:00:00 4,7 3,0 4,0 18 10 29 16 SW 1002,2 48 0,0
12.12.2019 01:00:00 5,2 3,3 4,6 22 12 32 18 SW 1002,4 45 0,0
12.12.2019 00:00:00 6,0 4,0 4,9 18 10 32 18 SSW 1002,6 13 0,0
11.12.2019 23:00:00 6,2 4,5 5,8 14 8 32 18 SSW 1003,0 11 0,3
11.12.2019 22:00:00 6,4 4,2 6,0 22 12 36 19 SSW 1003,2 12 0,0
11.12.2019 21:00:00 6,0 4,1 5,4 18 10 32 18 S 1003,4 16 0,0
11.12.2019 20:00:00 6,1 4,4 5,2 14 8 25 14 S 1003,5 15 0,0
11.12.2019 19:00:00 6,5 5,1 6,0 11 6 18 10 S 1004,0 13 0,0
11.12.2019 18:00:00 6,7 5,0 6,0 11 6 25 14 S 1004,2 16 0,0
11.12.2019 17:00:00 7,1 4,5 6,4 14 8 29 16 SSW 1004,5 27 0,0
11.12.2019 16:00:00 7,5 5,2 7,0 14 8 22 12 S 1004,8 13 0,0
11.12.2019 15:00:00 7,7 5,3 7,5 14 8 25 14 SSW 1005,1 14 0,0
11.12.2019 14:00:00 8,0 4,9 8,0 14 8 25 14 SSW 1005,7 16 0,0
11.12.2019 13:00:00 8,1 5,7 8,1 11 6 22 12 SSW 1006,4 16 0,0
11.12.2019 12:00:00 7,6 5,4 7,7 14 8 25 14 SW 1007,3 17 0,0
11.12.2019 11:00:00 7,0 5,9 6,8 11 6 22 12 S 1008,1 11 0,0
11.12.2019 10:00:00 6,6 5,5 6,4 11 6 18 10 S 1008,4 12 0,0
11.12.2019 09:00:00 6,7 5,5 6,3 11 6 22 12 S 1008,4 13 0,0
11.12.2019 08:00:00 7,1 5,8 6,7 14 8 29 16 SW 1008,5 16 0,0
11.12.2019 07:00:00 7,2 6,3 6,9 7 4 25 14 S 1008,9 12 0,0
11.12.2019 06:00:00 7,5 6,2 7,0 18 10 32 18 SW 1009,0 11 0,2
11.12.2019 05:00:00 7,6 6,2 7,1 22 12 36 19 SSW 1009,2 11 0,3
11.12.2019 04:00:00 7,5 6,1 7,1 25 14 43 23 SW 1009,4 16 0,2
11.12.2019 03:00:00 7,5 6,0 7,1 29 16 50 27 SSW 1009,7 6 0,5
11.12.2019 02:00:00 7,3 5,0 6,8 29 16 50 27 SSW 1009,6 11 0,1
11.12.2019 01:00:00 7,4 4,4 7,1 36 19 54 29 SSW 1009,6 25 0,0
11.12.2019 00:00:00 7,7 3,7 7,2 36 19 65 35 SSW 1010,0 30 0,0
10.12.2019 23:00:00 7,5 3,4 7,0 43 23 65 35 SSW 1010,6 27 0,0
10.12.2019 22:00:00 7,4 3,3 7,0 43 23 65 35 S 1010,5 28 0,0
10.12.2019 21:00:00 7,5 3,1 7,0 40 21 61 33 S 1011,7 28 0,0
10.12.2019 20:00:00 7,3 2,7 6,7 36 19 54 29 S 1012,8 25 0,0
10.12.2019 19:00:00 6,9 2,5 6,3 32 18 58 31 S 1013,7 27 0,0
10.12.2019 18:00:00 6,8 2,1 6,2 32 18 50 27 S 1015,1 27 0,0
10.12.2019 17:00:00 6,4 1,9 5,9 32 18 50 27 S 1016,0 31 0,0
10.12.2019 16:00:00 6,4 1,8 6,0 29 16 50 27 S 1017,3 30 0,0
10.12.2019 15:00:00 6,7 1,8 6,3 32 18 43 23 S 1018,7 30 0,0
10.12.2019 14:00:00 6,4 1,7 6,3 25 14 43 23 S 1020,1 29 0,0
10.12.2019 13:00:00 6,3 1,6 6,2 29 16 43 23 S 1021,6 27 0,0

tt = temperature
td = dewpoint
tt 5cm = temperature 5cm
ff = wind speed
fx = gusts
dd = wind direction
ppp = reduced air pressure
vv = visibility
rr = precipitation

Next stations